Probability
16 23 23 32 32 3 0 0 0 0 3 3 3 3 3 3 3 13 13 13 6 16 23 39 58 55 61 71 71 71 61 61 68 65 65 65 65 55 55 58 58 61 68 65 71 68 61 65 61
26 29 29 29 6 0 0 0 0 0 0 3 3 3 3 0 6 13 13 16 13 19 19 29 52 68 74 74 74 65 65 58 61 61 61 65 55 58 55 61 58 58 61 68 71 74 68 65 61
32 35 48 13 0 0 0 0 3 3 3 3 3 3 3 3 3 13 16 16 13 19 16 32 48 65 77 77 74 71 65 65 65 61 65 61 61 61 58 65 65 61 65 61 71 74 61 55 55
42 48 26 3 0 0 0 0 3 3 0 3 3 3 3 6 10 10 13 16 13 13 16 32 55 55 68 77 74 65 65 68 61 61 65 68 55 65 61 65 74 65 55 58 61 58 61 52 48
39 23 3 0 0 0 0 3 3 3 3 0 3 3 3 13 13 13 13 10 10 16 19 26 58 58 61 74 68 71 68 65 68 65 65 61 58 52 55 55 58 55 52 52 52 52 55 61 55
32 13 3 0 0 0 0 3 3 0 0 0 3 3 16 16 13 10 10 10 13 13 19 23 42 48 58 61 71 65 61 61 65 61 65 61 58 58 55 55 52 52 48 52 55 52 58 65 55
29 6 3 0 0 0 0 3 0 0 0 0 0 3 13 23 19 16 19 23 13 10 13 16 32 39 48 55 61 68 61 58 65 71 68 68 58 55 52 55 48 42 45 48 45 48 42 52 52
29 16 3 0 0 0 0 0 0 0 0 0 0 3 6 19 23 26 23 19 16 10 13 13 16 29 32 39 48 58 58 68 71 61 65 55 55 55 45 52 45 45 42 39 35 39 42 48 42
32 6 0 0 0 0 0 0 0 3 0 3 3 6 6 16 13 23 23 23 13 16 13 16 16 23 29 32 32 48 55 52 52 45 48 42 45 48 45 32 48 45 48 45 42 42 45 35 32
23 10 0 0 0 0 0 0 0 0 0 3 10 10 13 16 23 16 13 19 16 16 16 16 16 16 23 23 42 42 39 42 39 39 39 52 52 42 23 39 45 48 39 39 35 35 32 19 13
16 10 6 3 3 3 0 0 0 0 0 0 6 13 16 23 19 19 16 16 23 19 13 19 19 26 29 42 39 45 39 39 35 35 42 48 42 45 45 35 32 39 39 32 26 32 13 10 13
6 3 3 3 3 3 3 0 3 0 0 3 6 16 19 23 19 19 23 26 19 23 23 26 29 39 45 45 42 35 42 39 32 35 35 35 35 35 39 39 35 32 35 39 23 23 19 13 16
0 3 3 3 3 6 6 3 3 6 10 10 13 16 19 19 23 19 23 26 23 26 26 26 32 32 45 48 45 32 35 32 39 39 39 35 35 32 32 35 35 32 32 32 32 26 26 19 16
0 0 0 3 3 10 6 3 3 10 13 16 16 16 13 13 13 13 19 26 26 26 26 29 26 39 45 48 48 35 32 42 32 35 39 39 35 35 39 35 35 29 29 29 29 26 32 26 19
0 0 0 3 0 6 6 3 3 10 10 16 13 13 10 13 13 10 16 16 26 26 26 26 26 32 45 42 39 29 29 26 32 35 39 35 35 35 39 32 29 35 29 23 29 29 29 26 23
0 0 0 6 6 6 3 3 6 6 10 13 6 10 13 13 13 10 13 16 19 19 26 23 19 26 35 48 45 29 29 35 32 32 35 35 35 32 35 26 35 39 26 29 29 23 26 29 26
0 0 0 3 3 3 6 0 6 6 10 10 10 13 13 13 13 10 13 13 19 29 26 26 26 26 29 35 35 35 35 35 35 32 29 29 35 32 32 35 35 32 29 32 26 26 35 29 29
0 0 0 0 3 0 0 0 6 10 6 10 10 13 16 13 13 10 13 13 23 26 29 32 32 45 32 35 39 35 32 32 32 29 35 29 32 32 29 29 29 26 29 35 39 32 39 29 26
0 0 0 0 0 0 0 0 3 10 13 13 6 6 13 16 19 16 16 19 19 23 32 39 35 45 45 42 39 35 32 32 35 32 32 32 32 23 26 29 32 29 32 35 29 29 23 19 26
0 0 0 0 0 0 3 6 10 6 13 13 13 16 23 23 32 26 19 23 19 29 32 45 45 45 45 42 45 42 35 32 32 35 35 35 32 26 26 29 26 29 42 35 26 29 26 23 26
0 0 0 0 0 0 3 6 13 16 19 19 16 13 13 29 32 32 26 23 26 26 32 35 48 52 48 45 35 42 42 39 26 29 32 39 35 32 29 29 26 32 26 32 35 35 35 29 26
0 0 0 0 0 0 0 0 10 16 16 23 23 16 19 23 32 29 26 23 23 32 42 42 58 55 55 48 35 29 39 26 26 32 35 35 35 39 39 39 32 35 29 35 29 32 32 39 29
0 0 0 0 0 0 3 6 3 10 16 16 19 26 26 29 32 35 32 32 29 29 35 48 58 58 52 48 48 42 35 39 26 29 35 32 32 35 32 35 39 48 32 29 29 35 35 35 32
0 0 0 0 0 0 3 3 0 10 13 16 23 23 32 29 42 39 32 29 32 26 32 35 48 58 55 52 48 48 45 39 39 39 39 32 32 32 32 32 39 35 29 35 35 35 32 48 48
0 0 0 0 0 0 3 3 3 6 6 16 29 19 29 32 39 48 35 39 35 39 39 39 48 55 55 48 48 45 42 39 45 35 39 32 32 26 32 29 42 39 35 35 39 42 39 32 39
0 0 0 0 0 0 0 0 6 10 16 19 29 29 29 29 42 45 35 35 42 39 39 42 45 48 48 48 48 52 52 42 42 35 32 32 32 32 32 32 35 32 29 29 42 26 32 35 35
0 0 0 0 0 0 0 0 10 13 23 26 32 35 35 29 35 42 39 39 35 39 42 45 48 52 52 45 52 52 45 42 39 42 35 35 42 32 39 39 32 29 29 32 32 29 32 32 29
3 3 0 0 0 0 0 0 0 13 19 26 35 29 32 35 39 35 45 39 35 35 45 45 48 52 48 48 48 42 42 42 42 39 42 42 42 42 39 39 35 32 26 26 32 29 29 29 35
0 0 0 0 0 0 0 0 3 16 19 23 26 32 35 39 35 39 48 45 35 35 39 45 48 45 48 45 45 42 39 35 39 39 39 39 39 45 45 42 35 26 26 26 26 26 23 29 32
0 0 0 0 0 0 0 0 13 13 13 23 26 29 42 45 45 39 48 45 39 39 35 48 45 45 52 45 42 35 35 35 35 35 35 42 39 35 39 39 35 23 23 26 26 26 26 26 23
Height
5897 5896 5896 5896 5896 5896 5895 5893 5892 5890 5888 5887 5886 5884 5883 5883 5882 5882 5878 5875 5874 5872 5869 5865 5864 5864 5866 5867 5868 5869 5869 5869 5870 5871 5871 5871 5871 5872 5872 5872 5873 5873 5873 5874 5874 5875 5876 5876 5877
5898 5898 5899 5898 5898 5898 5896 5894 5893 5891 5889 5888 5886 5885 5884 5883 5881 5880 5878 5876 5875 5873 5870 5867 5866 5866 5866 5867 5868 5868 5868 5869 5869 5870 5870 5871 5871 5871 5872 5872 5872 5872 5873 5873 5873 5874 5875 5875 5876
5900 5900 5901 5900 5900 5899 5898 5896 5894 5892 5890 5889 5887 5886 5885 5884 5882 5880 5879 5877 5876 5874 5872 5870 5869 5868 5868 5868 5868 5868 5867 5867 5868 5869 5870 5870 5870 5871 5871 5871 5871 5871 5872 5872 5872 5873 5873 5874 5875
5902 5902 5902 5903 5901 5900 5899 5897 5895 5893 5891 5890 5889 5887 5886 5884 5883 5881 5880 5878 5877 5875 5874 5872 5871 5870 5870 5869 5869 5867 5866 5866 5867 5868 5869 5869 5870 5870 5870 5870 5870 5871 5871 5871 5871 5871 5872 5873 5873
5904 5904 5905 5904 5903 5901 5900 5898 5896 5894 5893 5891 5890 5888 5887 5885 5884 5882 5881 5879 5878 5877 5875 5873 5873 5872 5871 5870 5869 5868 5866 5866 5866 5867 5868 5869 5869 5869 5869 5869 5870 5870 5870 5869 5869 5870 5870 5871 5872
5906 5906 5908 5906 5904 5903 5901 5899 5897 5895 5894 5893 5891 5889 5888 5886 5885 5883 5882 5880 5879 5878 5876 5875 5874 5873 5872 5871 5870 5869 5867 5867 5867 5867 5868 5868 5867 5867 5868 5868 5868 5869 5868 5868 5868 5868 5869 5870 5871
5908 5908 5908 5907 5906 5904 5902 5900 5898 5897 5896 5894 5892 5890 5889 5887 5885 5884 5882 5882 5880 5879 5878 5876 5875 5874 5873 5872 5871 5870 5869 5868 5868 5868 5867 5866 5866 5866 5867 5867 5867 5867 5867 5866 5866 5867 5867 5868 5869
5909 5910 5910 5908 5907 5905 5904 5901 5900 5898 5897 5895 5893 5891 5890 5888 5887 5885 5884 5883 5881 5880 5879 5878 5877 5876 5875 5874 5873 5872 5871 5870 5869 5869 5867 5866 5864 5864 5866 5866 5866 5866 5866 5865 5865 5865 5866 5867 5868
5911 5913 5911 5909 5908 5906 5904 5903 5902 5900 5898 5897 5895 5893 5892 5890 5888 5886 5885 5884 5883 5882 5881 5879 5879 5878 5877 5876 5875 5874 5873 5872 5871 5870 5868 5866 5864 5864 5865 5866 5866 5866 5865 5864 5864 5864 5865 5866 5867
5912 5913 5912 5910 5909 5907 5905 5904 5903 5901 5900 5898 5896 5894 5893 5891 5889 5888 5887 5885 5884 5883 5882 5881 5880 5879 5878 5877 5877 5876 5875 5873 5872 5871 5870 5868 5866 5866 5867 5867 5866 5866 5865 5864 5864 5864 5864 5865 5866
5913 5913 5912 5911 5909 5908 5907 5905 5904 5903 5901 5900 5897 5896 5894 5892 5891 5889 5888 5887 5886 5884 5883 5882 5881 5881 5880 5879 5878 5877 5876 5874 5873 5872 5872 5871 5870 5869 5869 5868 5867 5866 5865 5864 5863 5863 5864 5865 5866
5914 5913 5913 5912 5910 5909 5908 5907 5905 5904 5903 5901 5899 5897 5895 5894 5892 5891 5890 5888 5887 5886 5885 5884 5883 5882 5881 5880 5879 5878 5877 5876 5875 5874 5873 5873 5873 5872 5871 5869 5868 5867 5865 5863 5863 5863 5864 5865 5866
5915 5914 5913 5913 5911 5910 5909 5908 5907 5905 5904 5902 5900 5898 5897 5895 5894 5893 5891 5890 5888 5887 5886 5885 5884 5884 5882 5882 5881 5880 5878 5878 5877 5876 5875 5875 5874 5873 5872 5870 5869 5868 5866 5864 5863 5864 5865 5866 5867
5915 5915 5914 5913 5912 5911 5910 5909 5908 5907 5905 5903 5902 5900 5898 5897 5895 5894 5893 5891 5890 5889 5887 5887 5886 5885 5884 5883 5882 5881 5880 5879 5878 5877 5877 5876 5875 5874 5873 5871 5870 5868 5867 5865 5865 5865 5865 5866 5867
5915 5915 5915 5914 5913 5912 5911 5911 5909 5907 5906 5904 5903 5901 5900 5898 5897 5896 5894 5893 5892 5890 5889 5889 5888 5887 5886 5884 5883 5882 5881 5880 5879 5878 5877 5877 5876 5874 5873 5872 5871 5869 5868 5867 5866 5866 5867 5867 5867
5915 5916 5916 5915 5913 5912 5913 5912 5910 5908 5906 5905 5904 5902 5901 5900 5898 5897 5895 5894 5893 5892 5891 5890 5889 5888 5887 5885 5884 5883 5882 5881 5880 5879 5878 5877 5876 5875 5874 5873 5872 5870 5869 5868 5868 5868 5868 5868 5868
5916 5917 5916 5915 5914 5912 5912 5911 5910 5908 5907 5905 5904 5903 5902 5900 5899 5898 5896 5895 5894 5893 5892 5891 5890 5889 5888 5886 5885 5884 5883 5882 5881 5880 5879 5877 5877 5875 5875 5874 5872 5871 5870 5869 5869 5869 5868 5868 5867
5916 5915 5915 5914 5913 5912 5911 5911 5910 5908 5907 5906 5904 5903 5902 5901 5900 5898 5897 5896 5895 5894 5893 5892 5891 5889 5888 5887 5886 5884 5883 5882 5881 5880 5879 5878 5877 5876 5875 5874 5872 5871 5870 5869 5869 5868 5868 5868 5867
5914 5914 5914 5913 5912 5912 5911 5911 5910 5908 5907 5906 5905 5904 5902 5901 5900 5899 5897 5896 5895 5894 5893 5892 5891 5890 5889 5887 5886 5885 5884 5883 5881 5880 5879 5878 5877 5876 5875 5873 5872 5871 5870 5870 5869 5868 5868 5867 5866
5912 5913 5913 5912 5911 5911 5911 5910 5910 5909 5907 5906 5905 5904 5902 5901 5900 5899 5898 5896 5895 5894 5893 5892 5891 5890 5889 5887 5886 5885 5884 5883 5881 5880 5879 5878 5877 5876 5875 5873 5872 5871 5870 5869 5868 5868 5867 5866 5866
5911 5911 5911 5911 5910 5910 5910 5910 5909 5908 5907 5906 5905 5903 5902 5901 5900 5898 5897 5896 5895 5894 5893 5892 5890 5889 5888 5887 5886 5884 5883 5882 5881 5880 5879 5878 5876 5875 5874 5873 5871 5870 5869 5868 5868 5867 5866 5865 5865
5909 5909 5909 5909 5909 5910 5910 5911 5908 5907 5906 5905 5904 5903 5901 5900 5899 5898 5897 5895 5894 5893 5892 5891 5890 5888 5887 5886 5885 5884 5882 5881 5880 5879 5878 5877 5876 5874 5873 5872 5871 5869 5868 5867 5866 5865 5865 5864 5864
5906 5907 5907 5907 5908 5909 5908 5909 5909 5906 5905 5904 5903 5902 5901 5899 5898 5897 5896 5895 5893 5892 5891 5890 5889 5888 5886 5885 5884 5883 5881 5880 5879 5878 5876 5875 5874 5873 5872 5871 5869 5868 5867 5866 5865 5864 5863 5863 5862
5904 5905 5906 5906 5907 5908 5907 5907 5907 5905 5904 5903 5902 5901 5900 5898 5897 5896 5895 5894 5892 5891 5890 5889 5888 5886 5885 5884 5883 5881 5880 5879 5877 5876 5875 5873 5872 5871 5870 5869 5868 5866 5865 5864 5863 5862 5861 5861 5860
5902 5904 5906 5907 5907 5907 5905 5905 5905 5903 5902 5901 5901 5900 5898 5897 5896 5895 5894 5893 5891 5890 5889 5887 5886 5884 5883 5882 5881 5880 5878 5877 5875 5874 5872 5871 5870 5869 5868 5866 5865 5864 5863 5862 5860 5859 5859 5858 5857
5899 5901 5904 5906 5906 5905 5903 5902 5903 5901 5900 5899 5899 5898 5897 5896 5895 5894 5892 5891 5890 5888 5887 5886 5884 5883 5881 5880 5878 5877 5876 5874 5872 5871 5870 5868 5867 5866 5865 5864 5862 5861 5860 5859 5858 5857 5855 5855 5854
5895 5897 5900 5902 5902 5903 5902 5900 5899 5898 5897 5897 5896 5895 5895 5894 5893 5892 5890 5889 5888 5886 5885 5883 5882 5881 5879 5877 5876 5874 5873 5871 5869 5868 5867 5866 5864 5863 5862 5860 5859 5858 5856 5855 5854 5853 5852 5851 5850
5892 5894 5896 5898 5898 5900 5900 5899 5898 5896 5895 5894 5893 5893 5892 5891 5890 5889 5888 5887 5885 5884 5882 5881 5879 5878 5876 5875 5873 5872 5870 5868 5866 5865 5863 5862 5861 5860 5858 5857 5855 5854 5852 5851 5850 5849 5848 5847 5846
5888 5890 5891 5893 5895 5896 5898 5899 5894 5893 5892 5892 5891 5890 5889 5889 5888 5887 5885 5884 5883 5881 5880 5878 5877 5875 5873 5871 5870 5868 5866 5865 5863 5862 5860 5859 5857 5856 5854 5853 5851 5850 5848 5847 5845 5844 5843 5842 5841
5884 5886 5888 5890 5890 5891 5893 5896 5890 5889 5888 5888 5888 5887 5886 5886 5885 5884 5883 5881 5880 5878 5877 5875 5873 5872 5870 5868 5867 5865 5863 5861 5860 5858 5856 5855 5853 5852 5850 5848 5847 5845 5843 5841 5840 5839 5837 5837 5836
Wind_Speed
11 11 11 12 13 13 12 11 11 11 11 11 10 9 9 9 9 8 8 8 7 7 7 6 5 5 5 5 5 5 4 4 4 4 3 3 4 5 5 6 5 5 5 5 6 6 6 6 6
12 12 12 13 13 11 11 11 11 11 11 11 10 10 10 9 9 8 8 8 7 7 7 6 6 6 6 5 5 4 3 4 5 4 4 4 5 5 5 5 5 5 5 5 5 6 6 7 7
12 12 12 13 12 11 11 11 11 11 11 10 10 10 10 9 9 8 8 8 8 7 7 7 7 6 6 5 4 3 3 4 5 5 5 5 4 4 5 5 5 5 4 5 5 6 6 6 6
12 11 12 12 11 10 10 11 11 11 11 11 11 10 10 10 9 8 8 8 8 7 7 7 7 6 6 5 5 4 3 3 5 5 5 5 5 5 5 5 5 5 5 4 4 5 6 6 7
11 12 13 10 10 10 10 11 11 12 11 11 11 10 10 10 9 8 8 8 8 7 7 7 7 7 6 6 5 5 4 4 5 5 6 5 5 5 5 4 4 4 4 4 5 5 5 6 6
10 12 12 10 10 10 10 11 11 12 12 11 11 10 9 9 9 9 9 8 7 7 8 7 7 7 6 6 6 6 6 6 6 6 6 5 4 4 4 4 4 4 3 4 5 5 6 6 6
10 11 11 10 11 11 10 11 12 12 12 12 11 11 10 10 10 9 9 9 8 7 8 7 7 7 7 8 7 8 7 7 6 6 5 5 4 4 4 4 4 3 2 3 4 5 6 6 7
9 10 10 10 10 10 11 11 12 11 12 12 12 11 10 9 9 9 9 8 8 8 8 8 8 8 8 9 9 9 8 8 7 6 6 5 4 4 3 3 4 3 2 2 3 5 6 6 6
8 10 8 9 9 10 10 11 11 11 11 12 12 12 11 10 9 9 9 8 8 7 7 7 7 8 8 9 9 9 9 8 7 7 6 6 5 4 3 3 3 3 2 2 3 5 6 6 6
8 9 8 9 9 10 10 10 10 11 11 11 11 11 11 10 10 9 8 7 7 7 7 7 8 8 8 8 8 9 8 8 7 7 6 6 6 5 4 3 2 2 1 2 3 5 6 6 6
8 8 7 8 9 9 9 10 10 10 11 11 10 10 10 10 10 9 8 7 7 6 6 6 6 8 8 8 8 7 7 7 7 6 5 6 6 5 4 3 3 2 1 2 3 5 5 6 6
7 7 7 7 8 9 9 9 10 10 10 10 10 10 9 10 10 10 9 8 6 6 6 5 5 6 7 7 7 7 6 6 7 7 6 5 4 4 4 4 3 2 1 2 3 4 4 4 4
5 5 5 5 6 7 8 9 9 9 9 9 9 9 9 9 9 9 9 8 7 7 6 5 6 6 6 7 7 7 6 6 6 5 5 5 4 4 4 4 3 3 2 1 3 3 4 4 4
3 4 4 4 5 5 6 7 8 8 8 9 9 9 8 8 8 8 8 8 8 7 7 5 6 6 7 7 6 6 6 6 6 5 4 4 4 4 4 3 3 2 3 3 2 2 3 3 4
2 2 3 3 3 3 4 6 7 7 7 8 8 8 8 7 7 7 7 7 7 7 7 6 6 7 6 6 7 7 6 5 5 4 4 4 4 4 4 4 3 2 2 1 2 2 3 3 3
1 2 2 2 2 2 3 4 5 6 6 7 8 7 7 7 7 6 6 7 7 6 6 7 6 6 6 6 6 6 6 5 5 4 4 3 3 3 3 4 4 3 2 1 0 1 2 3 3
2 2 3 3 2 2 1 2 3 5 6 6 7 7 6 5 5 5 5 5 5 5 5 6 6 5 5 5 5 5 5 5 5 5 4 3 3 4 4 4 3 3 3 3 2 2 1 2 2
4 3 3 3 2 2 1 2 2 4 6 6 6 6 6 5 5 5 5 5 4 4 4 4 5 5 4 4 5 5 5 5 5 5 5 4 4 4 4 4 3 4 4 3 3 3 3 3 3
5 5 5 4 4 2 1 2 3 4 5 6 6 6 6 5 4 5 5 5 4 4 4 4 4 5 5 5 5 5 5 5 5 5 5 5 5 5 6 5 5 5 4 4 4 4 4 4 4
7 6 6 6 5 3 3 4 5 5 6 6 6 6 6 5 4 4 5 4 4 4 5 5 5 5 4 5 5 5 5 5 5 5 5 5 5 5 6 6 6 5 5 5 5 5 5 4 4
8 8 7 7 6 5 4 5 6 6 6 6 6 6 7 6 5 5 5 5 5 5 5 5 5 5 5 5 5 6 5 5 5 5 5 5 6 6 6 6 6 6 6 6 6 5 5 5 5
9 9 7 7 5 5 5 5 7 7 7 6 6 7 7 7 6 6 5 5 5 5 5 6 6 5 6 6 6 6 6 7 7 7 7 7 7 7 7 7 7 7 7 6 7 7 6 7 7
10 9 8 7 6 5 6 5 7 7 7 7 7 7 7 7 7 6 6 6 6 5 6 7 7 7 7 7 8 8 8 8 8 8 8 8 8 9 8 9 9 9 8 8 9 9 9 9 9
10 9 8 7 6 7 7 6 6 7 6 6 7 7 7 8 8 7 6 7 7 7 7 8 8 8 8 8 9 9 10 10 10 10 10 10 10 9 9 9 10 10 10 10 10 10 10 10 10
11 9 8 8 8 9 9 8 8 8 7 7 7 7 7 8 8 8 8 8 8 8 9 10 10 10 9 9 10 11 11 11 11 11 11 11 11 11 11 11 11 12 12 12 12 12 12 12 11
13 11 10 10 10 10 10 9 9 8 9 9 8 7 8 8 8 9 9 9 9 10 10 11 11 11 11 11 12 12 12 12 12 12 12 12 12 13 13 13 13 13 13 13 13 13 14 14 13
14 13 12 12 11 10 10 10 9 9 9 10 9 9 9 10 9 10 10 10 11 11 11 12 12 13 12 12 13 13 13 13 13 12 12 13 13 13 14 14 14 15 14 15 15 15 15 16 16
15 14 13 12 12 11 10 10 11 10 10 10 10 10 10 11 11 11 11 12 12 12 13 13 13 14 14 14 14 14 14 13 13 13 13 14 15 15 15 15 15 16 16 17 16 16 17 17 17
17 15 15 14 13 11 10 11 12 11 11 10 11 11 11 12 12 12 13 13 13 13 13 14 14 15 15 15 15 15 15 15 14 14 15 15 15 15 15 15 16 17 18 18 18 18 19 19 19
19 18 16 14 14 14 12 13 13 13 12 12 12 12 12 13 13 13 13 14 14 14 14 14 15 16 16 16 16 16 16 16 16 15 16 16 16 16 16 17 18 18 19 20 20 20 20 20 21
Wind_Direction
84 84 80 79 76 71 69 71 71 68 68 69 69 69 66 66 61 58 55 51 49 48 49 55 85 107 116 129 137 139 147 160 158 155 158 165 170 170 171 171 178 186 187 191 197 198 195 190 193
82 83 81 81 79 74 68 67 69 71 68 69 69 66 63 61 58 58 57 56 52 49 52 60 80 98 106 111 123 125 135 156 161 158 156 158 163 168 173 172 175 182 183 191 198 198 198 194 193
83 80 78 76 76 74 66 65 67 70 68 67 68 63 58 57 60 59 58 59 57 57 63 67 72 87 93 91 93 109 128 155 165 161 156 156 157 165 170 171 175 175 183 196 207 202 199 199 202
83 79 73 69 70 71 68 64 62 67 68 64 63 61 59 58 57 58 58 60 58 60 64 67 72 79 85 84 80 86 109 147 153 153 151 154 157 158 166 176 180 178 182 197 204 202 198 201 204
81 76 70 67 68 69 68 66 63 65 64 61 58 58 58 56 55 55 57 60 60 64 64 68 78 74 78 79 79 81 93 122 135 136 137 141 146 155 160 170 175 176 187 186 192 197 200 200 201
83 78 78 70 67 64 65 64 62 61 59 56 53 54 53 54 53 54 58 62 64 67 66 66 72 71 73 72 78 84 91 111 120 126 133 138 138 147 153 164 175 188 183 192 191 193 196 196 201
87 83 77 72 66 61 60 62 63 61 56 52 52 53 51 51 51 53 57 63 63 63 64 70 73 72 76 72 82 88 88 102 110 114 122 136 138 148 145 153 177 186 175 192 193 197 197 202 204
84 79 72 70 67 61 59 59 60 59 54 50 51 51 47 48 52 55 59 64 62 59 60 73 74 73 78 82 87 87 87 96 101 105 108 115 129 145 152 151 180 176 159 171 186 194 192 193 202
77 79 75 72 69 62 58 56 54 51 50 48 50 51 48 48 52 55 56 57 56 57 61 73 80 76 81 87 87 85 85 90 92 100 99 98 106 123 128 126 167 171 157 178 189 198 194 193 197
84 86 79 74 68 63 59 54 49 48 45 44 49 50 46 47 52 54 50 54 57 57 59 75 85 84 85 87 88 89 86 87 94 102 101 100 101 104 102 97 130 153 164 183 185 190 194 192 196
82 86 82 72 65 63 59 55 51 48 44 45 49 49 48 49 50 49 46 49 57 60 63 77 86 84 87 87 86 90 91 88 92 97 98 91 90 91 86 77 112 99 99 163 170 181 176 175 184
86 83 82 72 67 66 61 57 51 46 46 49 49 49 52 51 50 47 44 46 51 59 63 73 84 78 82 84 87 91 89 88 86 78 80 86 79 73 76 80 87 77 96 170 173 185 186 180 181
86 77 80 72 67 66 61 57 50 44 44 45 47 48 52 53 52 47 44 44 45 52 56 61 64 63 70 74 75 77 78 75 77 75 66 62 62 63 67 83 80 73 69 154 180 181 186 191 196
92 74 71 62 65 65 63 55 48 45 42 40 42 46 49 49 50 49 46 48 47 48 57 62 57 55 61 64 64 63 65 69 70 72 66 52 43 41 41 68 71 75 75 93 117 161 185 192 206
98 70 52 46 51 54 57 47 38 36 33 32 31 36 42 43 44 45 45 45 47 51 59 64 57 54 53 51 51 51 48 46 50 59 62 50 41 35 45 43 53 50 49 88 136 164 196 212 227
356 21 349 350 5 26 46 38 23 20 19 22 22 27 35 42 43 40 39 39 41 45 51 52 46 49 46 42 37 35 34 35 39 37 34 30 28 26 33 28 20 12 19 22 70 193 222 222 233
289 303 293 303 318 328 356 22 8 7 10 11 15 20 26 30 32 29 26 28 31 35 37 37 37 36 32 30 25 22 22 25 29 24 15 10 12 13 14 10 6 358 350 335 327 310 286 259 263
245 260 268 283 290 297 324 6 352 350 359 1 1 6 8 8 10 13 12 17 20 20 15 13 14 13 9 8 6 7 7 12 17 16 5 6 2 358 354 351 345 343 335 320 312 314 303 282 269
242 252 259 268 273 261 284 329 325 322 344 353 351 349 349 349 346 351 358 3 3 357 350 346 347 347 346 351 354 354 350 355 3 9 6 354 348 352 350 339 333 330 323 311 311 316 305 286 281
246 254 260 261 265 264 280 302 305 310 324 337 345 342 337 332 330 330 335 339 338 336 336 334 332 334 331 333 341 339 337 340 349 353 351 345 340 331 332 334 331 328 322 311 312 315 314 307 299
252 256 257 261 261 269 281 297 304 311 315 319 328 336 333 326 318 320 328 329 323 320 322 327 321 320 321 320 321 327 326 325 326 327 326 327 326 320 320 325 328 324 316 310 310 317 321 314 312
255 257 260 262 262 272 271 281 295 304 308 312 314 321 328 328 318 318 323 325 320 315 317 324 323 318 313 311 311 316 319 317 316 313 311 311 313 313 316 314 313 316 313 312 311 310 304 305 304
252 253 258 260 262 269 278 275 289 298 302 309 314 315 325 324 322 315 314 317 314 307 311 318 317 315 313 309 307 310 311 309 308 307 304 303 304 306 309 311 312 313 310 308 306 301 300 298 295
253 259 259 263 267 270 278 281 282 289 294 303 309 309 317 320 319 315 311 311 307 305 310 311 309 308 309 306 305 307 309 309 306 303 300 300 301 304 305 306 305 305 301 300 300 298 294 293 291
254 253 258 268 268 268 274 277 274 278 283 292 301 304 309 312 312 310 309 305 301 303 306 306 306 304 304 304 302 303 304 304 303 300 298 297 297 297 297 299 300 300 298 296 294 292 289 289 288
249 241 242 254 263 275 276 277 281 277 279 286 290 294 299 307 309 308 310 307 301 300 302 303 303 303 304 305 301 299 300 301 300 297 296 294 294 295 295 295 296 297 297 293 290 288 288 288 286
247 245 244 252 260 266 272 279 282 281 281 285 285 285 294 298 299 302 306 307 303 301 301 301 301 301 302 303 301 300 298 300 300 298 296 296 294 294 293 292 293 292 293 293 290 287 286 286 286
245 247 248 246 252 260 272 280 278 282 287 286 285 286 292 297 296 297 298 304 305 303 303 301 300 299 297 298 299 297 296 298 300 298 296 294 293 292 291 290 292 293 292 292 290 286 283 284 283
248 249 250 250 250 254 265 271 275 278 280 281 282 287 293 294 297 295 297 299 301 303 302 302 300 297 294 294 295 296 297 297 297 295 295 294 293 291 291 292 293 294 294 293 291 287 284 284 283
245 247 248 253 258 257 259 267 275 277 277 277 278 283 289 291 295 296 296 299 299 300 301 301 300 297 294 293 293 294 295 298 297 295 293 292 291 291 292 292 293 294 294 292 291 289 285 284 283